• In Moldova, Republic
  • List of Countries
  • For 7 days
  • Water Temperature
  • Satellite Maps
  • Weather Map
  • Weather Widgets
  • user-avatar
    Login

    Hourly Weather Berezina

    Today, 25 September, Tuesday

    Time Temperature Precipitation Wind Pressure Humidity
    00:00 +7°C° 0.1 mm 5 mps 746 mmHg 86%
    01:00 +6°C° 0.1 mm 5 mps 746 mmHg 87%
    02:00 +7°C° 0 mm 3 mps 747 mmHg 90%
    03:00 +6°C° 0.1 mm 4 mps 748 mmHg 89%
    04:00 +6°C° 0.1 mm 5 mps 748 mmHg 87%
    05:00 +5°C° 0.1 mm 6 mps 749 mmHg 86%
    06:00 +5°C° 0 mm 6 mps 749 mmHg 85%
    07:00 +4°C° 0 mm 6 mps 750 mmHg 84%
    08:00 +4°C° 0 mm 6 mps 750 mmHg 82%
    09:00 +5°C° 0 mm 6 mps 751 mmHg 78%
    10:00 +5°C° 0 mm 6 mps 752 mmHg 73%
    11:00 +7°C° 0 mm 6 mps 752 mmHg 69%
    12:00 +8°C° 0.1 mm 6 mps 752 mmHg 64%
    13:00 +9°C° 0.1 mm 6 mps 753 mmHg 59%
    14:00 +10°C° 0.1 mm 6 mps 753 mmHg 54%
    15:00 +9°C° 0.1 mm 6 mps 753 mmHg 56%
    16:00 +9°C° 0.1 mm 5 mps 754 mmHg 58%
    17:00 +10°C° 0.1 mm 4 mps 754 mmHg 60%
    18:00 +8°C° 0 mm 4 mps 755 mmHg 63%
    19:00 +7°C° 0 mm 4 mps 755 mmHg 67%
    20:00 +6°C° 0 mm 4 mps 756 mmHg 71%
    21:00 +5°C° 0 mm 4 mps 757 mmHg 72%
    22:00 +5°C° 0 mm 4 mps 758 mmHg 74%
    23:00 +5°C° 0 mm 4 mps 758 mmHg 75%

    Tomorrow, 26 September, Wednesday

    Time Temperature Precipitation Wind Pressure Humidity
    00:00 +4°C° 0 mm 4 mps 759 mmHg 77%
    01:00 +4°C° 0 mm 4 mps 759 mmHg 79%
    02:00 +3°C° 0 mm 4 mps 760 mmHg 81%
    03:00 +3°C° 0 mm 3 mps 760 mmHg 84%
    04:00 +2°C° 0 mm 3 mps 760 mmHg 87%
    05:00 +2°C° 0 mm 3 mps 761 mmHg 90%
    06:00 +3°C° 0 mm 3 mps 761 mmHg 86%
    07:00 +4°C° 0 mm 3 mps 762 mmHg 82%
    08:00 +5°C° 0 mm 3 mps 762 mmHg 78%
    09:00 +7°C° 0 mm 3 mps 762 mmHg 68%
    10:00 +8°C° 0 mm 4 mps 762 mmHg 59%
    11:00 +11°C° 0 mm 4 mps 762 mmHg 49%
    12:00 +12°C° 0 mm 4 mps 761 mmHg 46%
    13:00 +12°C° 0 mm 5 mps 761 mmHg 44%
    14:00 +13°C° 0 mm 5 mps 760 mmHg 41%
    15:00 +12°C° 0 mm 4 mps 760 mmHg 44%
    16:00 +12°C° 0 mm 4 mps 759 mmHg 47%
    17:00 +11°C° 0 mm 4 mps 759 mmHg 50%
    18:00 +11°C° 0 mm 4 mps 759 mmHg 53%
    19:00 +10°C° 0 mm 4 mps 758 mmHg 55%
    20:00 +9°C° 0 mm 5 mps 758 mmHg 57%
    21:00 +8°C° 0.1 mm 5 mps 758 mmHg 61%
    22:00 +8°C° 0.1 mm 6 mps 757 mmHg 65%
    23:00 +8°C° 0.1 mm 6 mps 756 mmHg 70%

    Day after tomorrow, 27 September, Thursday

    Time Temperature Precipitation Wind Pressure Humidity
    00:00 +8°C° 0.1 mm 6 mps 756 mmHg 71%
    01:00 +8°C° 0.1 mm 7 mps 755 mmHg 72%
    02:00 +8°C° 0.1 mm 7 mps 755 mmHg 73%
    03:00 +8°C° 0.3 mm 7 mps 754 mmHg 76%
    04:00 +8°C° 0.3 mm 7 mps 753 mmHg 80%
    05:00 +8°C° 0.3 mm 7 mps 752 mmHg 83%
    06:00 +8°C° 0.4 mm 7 mps 752 mmHg 83%
    07:00 +8°C° 0.4 mm 7 mps 752 mmHg 84%
    08:00 +8°C° 0.4 mm 7 mps 751 mmHg 84%
    09:00 +9°C° 0.1 mm 7 mps 751 mmHg 83%
    10:00 +9°C° 0.1 mm 7 mps 751 mmHg 83%
    11:00 +10°C° 0.1 mm 7 mps 751 mmHg 82%
    12:00 +10°C° 0 mm 7 mps 751 mmHg 82%
    13:00 +11°C° 0 mm 7 mps 751 mmHg 82%
    14:00 +11°C° 0 mm 7 mps 751 mmHg 82%
    15:00 +13°C° 0 mm 6 mps 751 mmHg 83%
    16:00 +13°C° 0 mm 6 mps 751 mmHg 84%
    17:00 +14°C° 0 mm 6 mps 752 mmHg 84%
    18:00 +13°C° 0 mm 5 mps 752 mmHg 86%
    19:00 +13°C° 0 mm 5 mps 752 mmHg 89%
    20:00 +13°C° 0 mm 4 mps 753 mmHg 91%
    21:00 +12°C° 0 mm 4 mps 753 mmHg 92%
    22:00 +12°C° 0 mm 4 mps 753 mmHg 94%
    23:00 +12°C° 0 mm 3 mps 753 mmHg 95%

    28 September, Friday

    Time Temperature Precipitation Wind Pressure Humidity
    00:00 +11°C° 0 mm 3 mps 752 mmHg 96%
    01:00 +11°C° 0 mm 3 mps 752 mmHg 96%
    02:00 +11°C° 0 mm 3 mps 752 mmHg 96%
    03:00 +11°C° 0 mm 4 mps 751 mmHg 96%
    04:00 +12°C° 0 mm 4 mps 751 mmHg 95%
    05:00 +12°C° 0 mm 4 mps 750 mmHg 95%
    06:00 +12°C° 0 mm 5 mps 750 mmHg 92%
    07:00 +13°C° 0 mm 5 mps 749 mmHg 90%
    08:00 +13°C° 0 mm 6 mps 749 mmHg 87%
    09:00 +15°C° 0 mm 6 mps 749 mmHg 81%
    10:00 +16°C° 0 mm 7 mps 748 mmHg 74%
    11:00 +18°C° 0 mm 7 mps 748 mmHg 68%
    12:00 +18°C° 0 mm 7 mps 747 mmHg 66%
    13:00 +18°C° 0 mm 7 mps 747 mmHg 64%
    14:00 +20°C° 0 mm 6 mps 747 mmHg 62%
    15:00 +19°C° 0.1 mm 6 mps 747 mmHg 64%
    16:00 +17°C° 0.1 mm 5 mps 747 mmHg 67%
    17:00 +17°C° 0.1 mm 4 mps 747 mmHg 70%
    18:00 +15°C° 0 mm 4 mps 748 mmHg 73%
    19:00 +13°C° 0 mm 3 mps 748 mmHg 76%
    20:00 +13°C° 0 mm 2 mps 749 mmHg 79%
    21:00 +12°C° 0 mm 2 mps 749 mmHg 81%
    22:00 +12°C° 0 mm 2 mps 749 mmHg 83%
    23:00 +10°C° 0 mm 2 mps 750 mmHg 85%

    29 September, Saturday

    Time Temperature Precipitation Wind Pressure Humidity
    00:00 +9°C° 0 mm 2 mps 750 mmHg 87%
    01:00 +8°C° 0 mm 2 mps 750 mmHg 89%
    02:00 +7°C° 0 mm 2 mps 750 mmHg 90%
    03:00 +7°C° 0 mm 2 mps 751 mmHg 89%
    04:00 +7°C° 0 mm 2 mps 751 mmHg 87%
    05:00 +7°C° 0 mm 2 mps 751 mmHg 85%
    06:00 +7°C° 0 mm 2 mps 751 mmHg 82%
    07:00 +7°C° 0 mm 2 mps 752 mmHg 79%
    08:00 +8°C° 0 mm 2 mps 752 mmHg 76%
    09:00 +9°C° 0 mm 3 mps 753 mmHg 70%
    10:00 +10°C° 0 mm 3 mps 753 mmHg 64%
    11:00 +11°C° 0 mm 4 mps 754 mmHg 58%
    12:00 +11°C° 0 mm 4 mps 754 mmHg 58%
    13:00 +11°C° 0 mm 4 mps 754 mmHg 58%
    14:00 +11°C° 0 mm 4 mps 754 mmHg 58%
    15:00 +11°C° 0 mm 4 mps 755 mmHg 59%
    16:00 +10°C° 0 mm 3 mps 755 mmHg 59%
    17:00 +10°C° 0 mm 3 mps 756 mmHg 59%
    18:00 +8°C° 0 mm 3 mps 756 mmHg 62%
    19:00 +7°C° 0 mm 3 mps 757 mmHg 65%
    20:00 +5°C° 0 mm 2 mps 758 mmHg 68%
    21:00 +5°C° 0 mm 2 mps 758 mmHg 68%
    22:00 +4°C° 0 mm 2 mps 758 mmHg 68%
    23:00 +4°C° 0 mm 2 mps 759 mmHg 69%

    30 September, Sunday

    Time Temperature Precipitation Wind Pressure Humidity
    00:00 +3°C° 0 mm 2 mps 759 mmHg 69%
    01:00 +4°C° 0 mm 1 mps 759 mmHg 70%
    02:00 +3°C° 0 mm 1 mps 759 mmHg 71%
    03:00 +3°C° 0 mm 1 mps 759 mmHg 72%
    04:00 +3°C° 0 mm 1 mps 759 mmHg 73%
    05:00 +2°C° 0 mm 0 mps 760 mmHg 74%
    06:00 +3°C° 0 mm 0 mps 760 mmHg 70%
    07:00 +4°C° 0 mm 0 mps 760 mmHg 65%
    08:00 +5°C° 0 mm 0 mps 760 mmHg 61%
    09:00 +7°C° 0 mm 0 mps 760 mmHg 54%
    10:00 +10°C° 0 mm 1 mps 760 mmHg 47%
    11:00 +12°C° 0 mm 1 mps 760 mmHg 39%
    12:00 +13°C° 0 mm 1 mps 760 mmHg 36%
    13:00 +13°C° 0 mm 1 mps 759 mmHg 33%
    14:00 +14°C° 0 mm 1 mps 759 mmHg 31%
    15:00 +13°C° 0 mm 1 mps 758 mmHg 34%
    16:00 +12°C° 0 mm 1 mps 758 mmHg 38%
    17:00 +11°C° 0 mm 1 mps 757 mmHg 42%
    18:00 +10°C° 0 mm 1 mps 757 mmHg 44%
    19:00 +7°C° 0 mm 2 mps 757 mmHg 46%
    20:00 +6°C° 0 mm 2 mps 757 mmHg 48%
    21:00 +6°C° 0 mm 2 mps 757 mmHg 50%
    22:00 +5°C° 0 mm 2 mps 757 mmHg 53%
    23:00 +5°C° 0 mm 2 mps 757 mmHg 55%
    Show more